Find Eaglet 1

NORAD ID: 43790 Int'l Des: 2018-099 Owner: OHBI Country: I operational
LEOCIRCULARRETROGRADESSO

現在のビュー

3D地球を読み込み中...

About Eaglet 1

Eaglet 1 (NORAD 43790) is a satellite launched Dec 3, 2018 by OHBI of I. It operates in LEO, CIRCULAR, RETROGRADE, SSO orbit with a mass of 5.00 kg.

次回通過

Passes for default location (London). Set your location on the main map for personalized predictions.

高度履歴

Loading altitude history...

軌道要素

1 43790U 18099AJ 26195.10169009 .00002151 00000-0 12494-3 0 9991
2 43790 97.4219 244.0583 0009600 248.5716 111.4491 15.13128987416402
Epoch: Jul 14, 2026 • Age: 12 hours

現在のステータス

高度 542.0 km
遠地点 / 近地点 N/A
速度 7.59 km/s
衛星直下点 -46.40°S, 95.92°E
打ち上げ日 Dec 3, 2018
運用期間 7.6 years
タイプ other

技術仕様

分類 Payload
質量 5.00 kg
乾燥質量 5.00 kg
総質量 5.00 kg
長さ 0.30 m
直径 0.10 m
スパン 0.30 m
形状 Box+2 pan
製造者 OHBI
バスタイプ Cubesat 3U
フェーズステータス In Orbit
所有者/国 OHBI/I

Most Searched